Probability
0 1 2 1 0 0 1 1 0 0 0 0 0 0 0 0 1 1 1 0 0 0 1 2 1 1 1 1 1 0 0 0 0 0 0 0 0 0 0 0 0 0 0
1 1 3 3 2 1 2 2 1 1 0 0 0 0 0 0 0 1 1 1 0 0 1 2 1 1 1 1 0 0 0 0 0 0 0 0 0 0 0 0 0 0 0
1 1 3 6 5 4 4 3 3 2 1 0 0 0 0 0 0 0 1 1 1 0 1 1 1 0 0 0 0 0 0 0 0 0 0 0 0 0 0 0 0 0 1
1 1 4 8 8 6 5 4 4 3 2 1 0 0 0 0 0 0 0 1 1 1 2 1 1 0 0 0 0 0 0 0 0 0 0 0 0 0 0 0 0 0 1
0 1 5 9 10 8 6 6 5 4 2 1 0 0 0 0 0 0 0 0 1 2 3 3 2 1 0 0 0 0 1 1 0 0 0 0 0 0 0 0 0 0 1
2 3 6 9 10 9 7 7 5 3 1 0 0 0 0 1 1 0 0 0 0 1 3 3 3 1 0 0 0 1 2 1 0 0 0 0 0 0 0 0 0 0 0
4 4 6 10 11 8 7 7 5 3 1 1 0 0 1 1 1 0 0 0 0 1 2 3 3 2 1 0 0 2 2 1 0 0 0 0 0 0 0 0 0 0 0
4 5 6 8 8 7 7 7 5 3 2 2 1 1 1 1 1 0 0 0 0 0 1 1 2 3 2 1 1 1 2 1 0 0 0 0 0 0 0 0 0 0 0
4 4 4 5 5 4 5 5 5 4 3 2 1 1 1 0 0 0 0 1 1 1 0 0 1 2 3 2 1 1 1 0 0 0 0 0 0 0 0 0 0 0 0
5 5 4 3 2 2 2 2 3 2 1 1 0 0 0 0 0 0 0 1 2 2 0 0 0 1 2 2 1 0 0 0 0 0 0 1 1 1 0 0 0 0 0
7 6 4 3 2 1 0 0 1 1 0 0 0 0 0 0 0 0 0 1 1 1 0 0 0 0 1 1 0 0 0 0 0 0 0 1 2 1 0 0 0 0 0
7 5 3 3 3 2 0 0 0 0 0 0 0 0 0 0 0 0 0 0 0 0 0 0 0 0 0 0 0 0 0 0 0 0 0 1 2 1 0 0 0 0 0
6 5 4 4 5 4 2 1 0 0 0 0 0 0 0 0 0 0 0 0 0 0 0 0 0 0 0 0 0 0 1 1 0 0 0 1 2 2 1 0 0 0 0
6 6 5 5 5 6 5 3 2 1 0 0 0 0 0 0 0 0 0 0 0 0 0 0 0 0 0 0 0 0 1 2 1 1 0 1 2 2 1 1 0 0 0
6 6 7 7 6 7 7 7 5 2 0 0 0 0 0 0 0 0 0 0 0 0 0 0 0 0 0 0 0 0 1 2 2 2 1 0 1 2 3 2 1 0 0
5 5 7 8 7 7 7 7 6 3 1 1 1 0 0 0 0 0 0 0 0 0 0 0 0 0 0 0 0 0 0 1 3 3 2 1 1 2 3 2 1 0 0
4 4 6 8 7 6 6 6 6 5 3 2 2 1 0 0 0 0 0 0 0 0 0 0 0 0 0 0 0 0 0 1 2 3 3 1 0 1 2 1 1 0 0
5 4 5 6 7 6 6 6 6 6 4 3 3 1 0 0 0 0 0 0 0 0 0 0 0 0 0 0 0 0 0 0 2 3 3 2 1 0 0 1 1 0 0
5 5 5 6 6 6 6 6 6 6 5 4 3 2 0 0 0 0 0 0 0 0 0 0 0 0 0 0 0 0 0 0 2 3 3 2 1 0 0 0 0 0 0
4 4 5 6 6 6 6 6 6 6 5 4 3 1 0 0 0 0 0 0 0 0 0 0 0 0 0 0 0 0 0 0 1 3 3 2 1 0 0 0 0 0 0
2 3 5 6 6 6 6 6 6 6 5 4 2 1 0 0 0 0 0 0 0 0 0 0 0 0 0 0 0 0 0 0 1 2 3 2 1 0 0 0 0 0 0
1 1 3 5 6 6 6 6 6 6 5 4 3 1 0 0 0 0 0 0 0 0 0 0 0 0 0 0 0 0 0 0 0 1 2 2 1 0 0 0 0 0 0
0 0 1 3 4 5 6 6 6 6 6 5 4 2 1 0 0 0 0 0 0 0 0 0 0 0 0 0 0 0 0 0 0 0 1 1 0 0 0 0 0 0 0
0 0 0 1 1 3 4 5 5 5 6 6 5 4 1 0 0 0 0 0 0 0 0 0 0 0 0 0 0 0 0 0 0 0 0 0 0 0 0 0 0 0 0
0 0 0 0 0 1 1 3 3 4 4 5 6 5 3 1 0 0 0 0 0 0 0 0 0 0 0 0 0 0 0 0 0 0 0 0 0 0 0 0 0 0 0
0 0 0 0 0 0 0 1 3 3 4 5 6 6 3 1 0 0 0 0 0 0 0 0 0 0 0 0 0 0 0 0 0 0 0 0 0 0 0 0 0 0 0
Wind_Speed
5 6 7 7 8 8 8 9 9 9 9 9 9 10 10 10 10 10 10 10 10 11 11 11 11 12 12 13 13 13 13 13 13 13 13 12 12 13 13 12 11 9 13
7 7 8 8 8 8 9 9 9 9 9 9 9 9 9 9 10 10 10 10 10 11 11 11 11 11 12 12 12 12 12 11 11 11 10 10 10 12 13 12 11 9 13
8 7 7 8 8 8 9 9 9 9 9 9 9 9 9 9 10 10 10 10 10 11 10 11 11 11 11 11 11 11 10 9 8 8 7 5 7 11 12 12 11 12 12
7 6 6 8 8 9 9 9 9 9 9 9 9 9 9 9 10 10 10 10 10 10 10 10 10 10 10 10 10 9 9 8 8 6 4 4 5 10 11 11 11 11 12
7 6 7 9 9 9 9 9 9 9 9 8 9 9 9 9 9 9 9 9 9 9 9 9 9 9 9 9 9 8 8 7 8 6 4 5 4 8 10 10 10 10 11
6 6 7 9 9 9 10 10 10 10 9 9 9 9 9 9 9 9 9 9 8 8 8 8 9 9 8 8 8 7 7 7 6 4 4 4 4 8 9 9 9 10 10
6 6 7 9 9 9 9 9 9 9 9 9 10 9 9 10 10 9 9 8 8 8 8 8 8 8 8 7 7 7 7 7 4 4 4 4 4 8 9 8 9 9 9
6 6 6 8 8 8 8 8 8 8 8 8 9 9 9 10 9 9 9 8 8 7 7 7 7 7 7 7 7 6 7 6 5 4 4 4 6 8 8 8 8 9 9
6 6 5 4 5 7 7 7 8 8 8 8 9 9 9 9 9 9 9 8 8 7 7 7 7 7 7 6 6 6 6 7 4 2 4 3 5 7 7 8 8 8 8
6 5 4 4 4 4 4 7 7 8 8 8 8 8 8 7 8 8 8 8 7 7 7 6 6 6 6 5 5 5 6 5 3 3 3 3 6 6 7 7 7 7 7
5 5 4 4 4 3 3 5 5 6 7 7 6 7 5 4 4 5 7 7 7 7 6 5 5 5 5 4 4 4 4 2 2 3 3 4 6 6 6 5 6 6 6
4 4 4 4 3 3 3 3 2 3 3 3 3 3 3 3 3 4 5 6 6 6 5 4 4 3 2 1 2 3 1 2 3 2 2 5 5 6 5 4 4 5 4
3 4 4 4 4 3 2 2 2 2 2 2 3 3 3 3 2 3 2 2 3 3 3 2 2 1 1 1 1 1 2 2 2 2 2 4 5 4 4 3 3 3 3
3 4 4 4 3 3 3 2 2 2 2 2 2 3 3 2 2 2 2 2 2 2 2 2 1 2 2 2 1 1 2 1 2 2 2 3 3 3 2 2 2 2 2
3 3 3 3 3 3 3 2 2 2 2 2 2 3 3 2 2 2 1 2 2 2 2 2 2 3 3 3 2 2 1 1 2 2 1 3 3 2 1 1 2 2 2
2 3 3 3 3 3 2 2 1 2 2 2 2 3 3 2 2 2 2 2 2 2 2 2 2 2 2 2 2 2 1 1 1 1 1 1 2 2 1 0 1 2 2
3 3 2 2 3 2 2 2 2 2 2 2 2 3 3 2 2 2 1 2 2 2 2 2 2 1 2 2 2 3 2 1 1 1 1 1 0 1 1 1 0 1 2
3 3 2 2 2 2 2 2 1 1 2 1 1 2 2 2 2 2 1 1 2 2 2 1 1 1 1 1 1 2 2 2 1 1 1 1 0 0 1 1 1 1 1
3 3 3 2 2 2 2 1 1 1 1 1 1 1 1 2 2 1 1 1 1 1 1 2 1 1 1 1 1 1 1 1 1 1 0 0 0 0 0 1 1 0 1
3 3 3 2 3 2 2 2 2 2 1 1 1 1 1 1 1 1 1 1 1 1 1 1 1 1 1 1 2 2 1 1 1 1 1 0 0 0 0 0 0 1 1
3 3 3 2 2 2 1 1 1 1 1 1 1 1 1 1 1 1 1 1 1 0 0 1 1 1 1 1 1 1 2 1 1 1 1 0 0 0 0 0 0 0 1
4 3 3 2 2 2 1 1 0 0 0 0 0 1 1 1 0 0 1 0 0 0 0 1 1 1 1 1 0 0 1 2 1 1 1 0 0 0 0 1 0 0 0
4 3 3 3 3 2 2 1 1 1 1 1 1 1 1 0 0 0 0 0 0 0 0 0 0 1 1 1 1 1 1 2 1 1 1 1 1 1 0 0 0 0 0
4 4 3 3 3 3 2 2 1 1 1 1 1 1 1 1 0 0 0 0 0 0 0 1 0 1 1 1 1 1 1 1 1 1 1 1 1 2 1 1 1 1 0
4 4 4 4 4 3 3 2 2 1 1 1 1 2 1 1 1 0 1 1 1 0 0 1 1 1 1 1 1 1 1 2 1 1 2 2 1 2 2 2 2 1 1
5 5 4 4 4 4 4 3 2 2 2 2 2 2 2 1 1 1 1 1 1 1 1 1 1 2 1 1 1 1 1 1 1 1 2 2 2 2 2 2 2 1 1
Wind_Direction
93 102 97 94 90 85 83 82 81 78 76 75 72 70 72 73 68 67 68 68 66 68 70 70 68 68 69 68 67 67 68 68 70 68 65 66 68 72 75 74 72 73 79
104 106 102 95 90 85 84 83 80 77 75 73 71 70 70 71 70 68 69 69 67 67 67 68 68 69 72 72 69 67 67 70 73 72 66 63 66 71 73 71 72 78 80
98 102 104 96 91 87 86 85 82 78 75 72 72 70 68 68 67 67 67 67 67 65 65 66 68 69 70 71 69 68 67 65 63 68 69 67 72 75 75 73 75 80 81
96 99 98 94 94 91 88 86 83 78 74 72 71 70 68 66 65 64 65 66 66 67 67 66 67 70 71 70 67 64 59 50 44 46 54 63 73 80 80 78 78 82 82
88 92 98 97 96 93 88 83 81 76 72 72 71 70 68 64 63 62 63 65 64 65 68 70 69 71 71 68 64 58 48 38 33 44 51 57 64 83 82 80 81 82 83
84 87 95 97 95 91 89 85 79 75 71 72 71 68 69 65 60 60 60 62 63 65 66 69 70 70 68 65 61 51 38 27 24 41 51 56 67 87 84 82 82 82 85
82 83 91 89 92 90 88 87 83 78 74 71 68 65 64 64 59 57 59 59 61 64 66 66 69 69 67 61 53 41 29 20 35 42 50 50 73 87 86 82 82 83 84
79 81 86 82 83 83 82 82 81 79 76 73 69 67 63 61 59 53 56 56 56 61 65 66 66 65 63 56 46 34 19 16 41 57 53 54 78 89 87 87 85 83 81
75 76 77 80 82 78 75 74 74 76 75 71 69 67 63 61 59 54 50 51 51 53 60 65 63 60 56 52 42 25 11 10 19 45 69 61 77 90 91 88 87 85 84
70 70 69 62 62 72 77 74 73 73 71 71 67 62 60 61 60 54 49 47 48 47 48 56 60 56 50 47 35 17 1 1 32 49 57 71 79 90 92 89 87 88 85
62 59 62 62 59 56 69 76 74 76 71 71 70 63 58 63 63 59 54 46 46 44 42 46 54 49 39 39 24 2 358 12 43 57 48 72 88 86 88 90 89 88 86
66 55 48 51 57 56 55 68 72 74 72 69 76 65 56 57 54 59 58 49 42 37 34 35 34 28 22 26 8 354 1 16 50 61 58 67 82 87 85 87 90 93 93
83 64 47 45 44 53 48 54 55 65 60 57 62 52 61 63 57 52 52 49 43 36 30 21 13 1 9 19 24 10 8 27 50 57 61 69 72 81 91 96 97 102 104
83 65 47 39 38 37 51 44 54 64 60 56 43 46 55 67 59 45 36 26 26 28 20 12 4 11 12 4 10 27 26 36 62 69 64 66 69 67 80 110 117 112 105
84 68 56 43 44 31 42 38 53 58 59 60 50 48 46 60 67 55 41 32 21 15 17 9 15 19 7 359 359 5 36 53 71 79 77 64 66 67 78 124 143 141 143
78 74 59 50 42 37 42 44 58 71 60 52 50 52 49 49 52 53 41 31 29 15 358 0 12 18 7 5 357 352 8 35 66 96 109 74 58 49 31 152 166 172 176
77 76 62 57 37 36 46 41 53 71 69 65 54 51 54 48 41 42 46 28 18 7 0 3 9 18 20 13 1 351 356 8 35 59 84 83 63 2 340 327 229 193 190
80 81 63 54 43 26 35 37 43 74 79 72 63 62 55 51 50 47 51 30 5 2 8 2 15 19 14 13 349 336 348 360 5 9 69 82 77 321 320 337 316 218 207
62 74 66 55 52 30 21 28 44 64 74 79 66 75 71 56 55 51 52 25 7 3 4 355 7 4 7 5 343 332 339 334 316 320 62 99 127 102 257 283 286 288 254
52 58 67 61 47 35 27 32 37 49 45 56 57 54 63 66 64 59 49 21 12 18 8 12 357 353 347 342 330 327 317 294 301 294 258 223 128 108 74 227 253 280 288
47 43 40 52 49 47 32 28 27 22 357 20 39 50 41 48 80 91 55 19 8 20 350 14 4 4 340 342 347 328 314 280 234 263 261 225 190 152 80 79 165 197 273
34 28 27 25 29 26 6 349 317 279 287 296 26 40 29 10 32 58 112 135 347 11 20 50 33 352 304 317 15 320 320 318 326 304 321 282 267 92 62 5 70 143 99
25 21 19 17 11 0 9 18 22 14 6 17 8 350 324 318 21 43 233 190 269 196 181 113 122 6 288 293 306 175 191 238 308 302 313 329 338 345 302 303 323 274 202
15 14 14 12 18 5 13 25 25 5 323 315 302 301 302 300 261 194 217 246 262 227 194 257 281 257 208 252 288 295 248 199 184 291 300 314 335 332 327 334 319 297 259
17 18 13 11 11 7 5 7 358 347 325 329 335 330 335 307 292 263 235 211 246 253 247 277 286 269 235 227 235 279 282 282 229 214 261 290 310 312 325 311 295 279 279
19 17 13 8 6 7 2 358 358 346 340 339 334 324 328 321 301 289 268 244 236 247 238 246 255 263 264 252 244 239 236 239 233 225 240 263 270 279 292 281 275 265 251